map of YZF home
YZF - Airport
Location
City:  Yellowknife, Northwest Territories, Canada
Name:Yellowknife Airport
ICAO:CYZF
IATA:YZF

Details
Type:Airport (Airfield)
Use:Public/Civil
Latitude:6227'47"N (62.463056)
Longitude:11426'25"W (-114.440277)
Elevation:675 ft (206 m)
Variation:16.65E (WMM2015v2 magnetic declination)
-0.17 annual change
Runways:2
Longest:7503 ft (2287 m), paved

Time
Time Zone:UTC-7 (DST-6)
Local Time:

Weather
METAR:CYZF 041400Z 08006KT 1SM R34/P6000FT/N BR SKC M38/M42 A3041 RMK SLP341
TAF:CYZF 041138Z 0412/0512 06006KT P6SM IC FEW240
TEMPO 0412/0420 3SM IC PROB30 0414/0420 1SM IC BR
FM042000 10010KT P6SM SKC
BECMG 0508/0510 06008KT
RMK NXT FCST BY 041800Z

Related Locations
Nearby:
Farthest:YWKS: 11068 mi / 17812 km
Wilkins Runway (Casey), Upper Peterson Glacier, AQ

Find:

   beyond  
but within

Other Information
Maps:
NOTAMs:
Links:
Sources:

  
  • flag of Canada
  • flag of Northwest Territories
  

Airport Diagram

Airport diagram for YZF

Airport diagram PDF

Sectional Chart

Flight Planning
at skyvector.com

Satellite Image

Google Maps Satellite view

 

Copyright © 2004-2019 Karl L. Swartz. All rights reserved.
The Great Circle Mapper name and logo are trademarks of the Great Circle Mapper.
All other trademarks mentioned herein belong to their respective owners.
Please see credits for attibutions and further copyright information.

  Follow gcmap on Facebook Follow gcmap on Twitter GCmap on LinkedIn

hCard Microformat

Geo Microformat